EW9248 Weather Reports


time (UTC)temp
C
wind
direction
speed
KPH
gust
KPH
rain 1hr
cm
rain 24hr
cm
rain mn
cm
humidity
%
barometer
mb
20260504070337 2 0.0 0.0 0.00 0.00 0.00 89 1011.1
20260504050317 4 0.0 0.0 0.00 0.00 0.00 85 1011.3
20260504045316 4 0.0 0.0 0.00 0.00 0.00 84 1011.4
20260504044357 5 0.0 0.0 0.00 0.00 0.00 83 1011.3
20260504043316 5 0.0 0.0 0.00 0.00 0.00 82 1011.3
20260504042316 5 0.0 0.0 0.00 0.00 0.00 81 1011.3
20260504041316 6 0.0 0.0 0.00 0.00 0.00 81 1011.3
20260504040316 6 0.0 0.0 0.00 0.00 0.00 80 1011.3
20260504035337 7 0.0 0.0 0.00 0.00 0.00 79 1011.3
20260504034316 7 0.0 0.0 0.00 0.00 0.00 78 1011.3
20260504033316 7 0.0 0.0 0.00 0.00 0.00 78 1011.4
20260504032437 7 0.0 0.0 0.00 0.00 0.00 78 1011.4
20260504031316 8 0.0 0.0 0.00 0.00 0.00 77 1011.5
20260504030316 8 0.0 0.0 0.00 0.00 0.00 76 1011.5
20260504025336 8 0.0 0.0 0.00 0.00 0.00 75 1011.4
20260504024317 8 0.0 0.0 0.00 0.00 0.00 75 1011.5
20260504023336 8 0.0 0.0 0.00 0.00 0.00 76 1011.7
20260504022336 8 0.0 0.0 0.00 0.00 0.00 75 1011.7
20260504021316 8 225 1.6 1.6 0.00 0.00 0.00 74 1011.7
20260504020336 8 0.0 0.0 0.00 0.00 0.00 73 1011.7
20260504015316 8 0.0 1.6 0.00 0.00 0.00 73 1011.7
20260504014436 8 0.0 0.0 0.00 0.00 0.00 73 1011.6
20260504013317 8 0.0 0.0 0.00 0.00 0.00 73 1011.5
20260504012316 8 0.0 0.0 0.00 0.00 0.00 72 1011.4
20260504011356 9 0.0 0.0 0.00 0.00 0.00 71 1011.4
20260504010316 9 0.0 0.0 0.00 0.00 0.00 69 1011.3
20260504005316 10 0.0 0.0 0.00 0.00 0.00 70 1011.3
20260504004317 10 0.0 0.0 0.00 0.00 0.00 69 1011.3
20260504003336 10 0.0 0.0 0.00 0.00 0.00 67 1011.1
20260504002316 11 0.0 0.0 0.00 0.00 0.00 61 1011.0
20260504001317 11 0.0 0.0 0.00 0.00 0.00 63 1011.0
20260504000316 11 0.0 0.0 0.00 0.00 0.00 64 1010.7
20260503235336 12 0.0 0.0 0.00 0.00 0.00 56 1010.6
20260503234337 12 0.0 0.0 0.00 0.00 0.00 52 1010.6
20260503233357 12 247 1.6 3.2 0.00 0.00 0.00 48 1010.4
20260503232416 13 247 4.8 6.4 0.00 0.00 0.00 46 1010.4
20260503231337 13 247 4.8 6.4 0.00 0.00 0.00 46 1010.3
20260503230336 13 247 4.8 6.4 0.00 0.00 0.00 47 1010.4
20260503225316 13 247 9.7 16.1 0.00 0.00 0.00 46 1010.4
20260503224316 13 270 4.8 6.4 0.00 0.00 0.00 47 1010.5
20260503223356 13 247 4.8 12.9 0.00 0.00 0.00 46 1010.5
20260503222336 13 292 6.4 11.3 0.00 0.00 0.00 45 1010.6
20260503221317 13 225 4.8 6.4 0.00 0.00 0.00 45 1010.6
20260503220356 13 247 8.0 14.5 0.00 0.00 0.00 44 1010.6
20260503215336 14 292 8.0 16.1 0.00 0.00 0.00 44 1010.7
20260503214357 13 225 3.2 4.8 0.00 0.00 0.00 45 1010.8
20260503213336 13 315 4.8 11.3 0.00 0.00 0.00 47 1010.6
20260503212336 13 315 6.4 8.0 0.00 0.00 0.00 46 1010.6
20260503211336 12 337 4.8 8.0 0.00 0.00 0.00 48 1010.7
20260503210316 12 247 3.2 4.8 0.00 0.00 0.00 49 1010.8
20260503205316 12 292 1.6 3.2 0.00 0.00 0.00 47 1010.9
20260503204315 12 292 3.2 4.8 0.00 0.00 0.00 50 1011.0
20260503203336 12 292 4.8 9.7 0.00 0.00 0.00 48 1011.1
20260503202335 12 315 6.4 9.7 0.00 0.00 0.00 48 1011.1
20260503201315 12 135 3.2 6.4 0.00 0.00 0.00 49 1011.2
20260503200357 12 225 14.5 22.5 0.00 0.00 0.00 47 1011.5
20260503195315 12 315 8.0 14.5 0.00 0.00 0.00 45 1011.2
20260503194315 13 292 4.8 8.0 0.00 0.00 0.00 44 1011.1
20260503193336 12 292 3.2 8.0 0.00 0.00 0.00 46 1011.2
20260503192416 12 0 4.8 9.7 0.00 0.00 0.00 41 1011.3
20260503191335 12 315 4.8 8.0 0.00 0.00 0.00 42 1011.3
20260503190416 13 292 8.0 14.5 0.00 0.00 0.00 41 1011.4
20260503185315 12 270 6.4 11.3 0.00 0.00 0.00 46 1011.5
20260503184335 12 270 6.4 14.5 0.00 0.00 0.00 45 1011.7
20260503183336 12 225 1.6 3.2 0.00 0.00 0.00 41 1011.6
20260503182335 13 22 3.2 9.7 0.00 0.00 0.00 42 1011.8
20260503181355 12 292 8.0 12.9 0.00 0.00 0.00 43 1012.0
20260503180335 12 270 3.2 6.4 0.00 0.00 0.00 43 1012.0
20260503175336 13 337 8.0 16.1 0.00 0.00 0.00 43 1012.2
20260503174315 12 315 9.7 16.1 0.00 0.00 0.00 40 1012.3
20260503173315 12 337 6.4 14.5 0.00 0.00 0.00 42 1012.4
20260503172335 12 292 9.7 14.5 0.00 0.00 0.00 45 1012.4
20260503171356 11 292 3.2 3.2 0.00 0.00 0.00 45 1012.7
20260503170315 11 337 4.8 9.7 0.00 0.00 0.00 43 1012.8
20260503150335 8 270 8.0 14.5 0.00 0.00 0.00 49 1014.0
20260503131316 6 315 6.4 9.7 0.00 0.00 0.00 57 1014.2
20260503130335 7 247 4.8 6.4 0.00 0.00 0.00 59 1014.3
20260503110317 2 0.0 1.6 0.00 0.00 0.00 81 1013.9
20260503090316 2 0.0 0.0 0.00 0.00 0.00 88 1013.1
20260503081417 2 0.0 0.0 0.00 0.00 0.00 89 1013.1
20260503080316 2 0.0 0.0 0.00 0.00 0.00 89 1013.2
20260503072316 2 0.0 0.0 0.00 0.00 0.00 88 1013.2
20260503071316 2 0.0 0.0 0.00 0.00 0.00 88 1013.2